Location: Arboucave
(43.6130°N, 0.4343°W)
Time: 07:58:28
(UTC+00:00)

MOS 1 Rocket - Pass Details

Date: 17 November 2025
Orbit: 610 x 813 km, 97.4° (Epoch: 13 December)

Event Time Altitude Azimuth Distance (km) Brightness Sun altitude
Rises 18:30:27 0° 184° (S) 2,864 6.6 -20.9°
Reaches altitude 10° 18:32:41 10° 191° (SSW) 1,974 5.8 -21.3°
Maximum altitude 18:36:44 41° 263° (W) 911 4.4 -22.0°
Drops below altitude 10° 18:40:58 10° 334° (NNW) 2,060 6.0 -22.7°
Sets 18:43:21 0° 342° (NNW) 3,006 6.8 -23.2°
